Weather History for Cedar Rapids, IA

Change the Weather History Date:

Wednesday, April 9, 2014

  Actual Average Record
Temperature  
Mean Temperature 48 °F 47 °F  
Max Temperature 69 °F 58 °F 81 °F (1905)
Min Temperature 27 °F 35 °F 13 °F (1997)
Degree Days  
Heating Degree Days 17 18  
Month to date heating degree days 201 180  
Since 1 July heating degree days 7310 6344  
Cooling Degree Days 0 0  
Month to date cooling degree days 0 0  
Year to date cooling degree days 0 0  
Moisture  
Dew Point 29 °F    
Average Humidity 56    
Maximum Humidity 92    
Minimum Humidity 20    
Precipitation  
Precipitation 0.00 in 0.10 in 1.30 in (2013)
Month to date precipitation 0.18 0.76  
Year to date precipitation 2.32 5.00  
Sea Level Pressure  
Sea Level Pressure 29.91 in    
Wind  
Wind Speed 13 mph (SW)    
Max Wind Speed 29 mph    
Max Gust Speed 38 mph    
Visibility 10 miles    
Events      
T = Trace of Precipitation, MM = Missing Value Source: NWS Daily Summary

Daily Weather History Graph

Daily Weather History Graph

Search for Another Location

Airport:

Trip Planner

Search our weather history database for the weather conditions in past years. The results will help you decide how hot, cold, wet, or windy it might be!

Date:

Astronomy

Apr. 09, 2014 Rise Set
Actual Time 6:36 AM CDT 7:41 PM CDT
Civil Twilight 6:07 AM CDT 8:09 PM CDT
Nautical Twilight 5:33 AM CDT 8:44 PM CDT
Astronomical Twilight 4:58 AM CDT 9:19 PM CDT
Moon 2:25 PM CDT (4/9) 3:30 AM CDT (4/9)
Length of Visible Light 14h 02m
Length of Day
13h 05m
Waxing Gibbous, 72% of the Moon is Illuminated
Apr 9
Waxing Gibbous
Apr 15
Full
Apr 22
Last Quarter
Apr 29
New
May 6
First Quarter

Hourly Weather History & Observations

Time (CDT) Temp. Windchill Dew Point Humidity Pressure Visibility Wind Dir Wind Speed Gust Speed Precip Events Conditions
12:52 AM 36.0 °F 29.6 °F 30.0 °F 79% 30.01 in 10.0 mi NW 8.1 mph - N/A   Clear
1:52 AM 33.1 °F 27.7 °F 28.0 °F 82% 30.02 in 10.0 mi NW 5.8 mph - N/A   Clear
2:52 AM 30.0 °F 21.7 °F - N/A% 30.01 in 10.0 mi West 9.2 mph - N/A   Clear
3:52 AM 28.9 °F 21.9 °F - N/A% 30.01 in 10.0 mi West 6.9 mph - N/A   Clear
4:52 AM 28.0 °F 20.8 °F - N/A% 30.02 in 9.0 mi West 6.9 mph - N/A   Clear
5:52 AM 30.0 °F 25.2 °F 27.0 °F 88% 30.03 in 9.0 mi West 4.6 mph - N/A   Clear
6:52 AM 28.0 °F - 27.0 °F 96% 30.04 in 7.0 mi Calm Calm - N/A   Clear
7:52 AM 34.0 °F - 30.9 °F 89% 30.06 in 8.0 mi Calm Calm - N/A   Clear
8:52 AM 41.0 °F 36.4 °F 34.0 °F 76% 30.05 in 10.0 mi SW 6.9 mph - N/A   Clear
9:52 AM 48.9 °F - 30.9 °F 50% 30.03 in 10.0 mi SW 13.8 mph - N/A   Clear
10:52 AM 54.0 °F - 28.9 °F 38% 30.02 in 10.0 mi SW 12.7 mph - N/A   Clear
11:52 AM 57.9 °F - 28.9 °F 33% 29.99 in 10.0 mi SSW 10.4 mph - N/A   Clear
12:52 PM 62.1 °F - 26.1 °F 25% 29.94 in 10.0 mi SSW 16.1 mph 24.2 mph N/A   Partly Cloudy
1:52 PM 64.0 °F - 25.0 °F 23% 29.90 in 10.0 mi SSW 18.4 mph 27.6 mph N/A   Partly Cloudy
2:52 PM 66.9 °F - 26.1 °F 21% 29.86 in 10.0 mi SSW 18.4 mph 28.8 mph N/A   Clear
3:52 PM 68.0 °F - 26.1 °F 21% 29.81 in 10.0 mi South 23.0 mph 29.9 mph N/A   Clear
4:52 PM 69.1 °F - 26.1 °F 20% 29.78 in 10.0 mi SSW 23.0 mph 32.2 mph N/A   Clear
5:52 PM 66.9 °F - 27.0 °F 22% 29.77 in 10.0 mi South 20.7 mph 32.2 mph N/A   Clear
6:52 PM 64.9 °F - 28.0 °F 25% 29.78 in 10.0 mi SSW 16.1 mph 25.3 mph N/A   Clear
7:52 PM 60.1 °F - 30.0 °F 32% 29.78 in 9.0 mi South 13.8 mph - N/A   Clear
8:52 PM 57.9 °F - 30.9 °F 36% 29.77 in 10.0 mi South 13.8 mph - N/A   Clear
9:52 PM 57.9 °F - 32.0 °F 37% 29.76 in 10.0 mi South 15.0 mph - N/A   Clear
10:52 PM 57.0 °F - 32.0 °F 39% 29.73 in 10.0 mi South 16.1 mph - N/A   Clear
11:52 PM 57.0 °F - 30.9 °F 37% 29.72 in 10.0 mi South 16.1 mph - N/A   Clear